Weather History for Edinburgh Airport, United Kingdom

Change the Weather History Date:

Sunday, May 26, 2013

  Actual Average Record
Temperature  
Mean Temperature 50 °F -  
Max Temperature 60 °F 62 °F 73 °F (1997)
Min Temperature 41 °F 47 °F 37 °F (2000)
Degree Days  
Heating Degree Days 14    
Moisture  
Dew Point 43 °F    
Average Humidity 71    
Maximum Humidity 87    
Minimum Humidity 58    
Precipitation  
Precipitation 0.00 in 0.07 in - ()
Sea Level Pressure  
Sea Level Pressure 29.99 in    
Wind  
Wind Speed 7 mph ()    
Max Wind Speed 20 mph    
Max Gust Speed -    
Visibility 6.2 miles    
Events      
Averages and records for this station are not official NWS values.
T = Trace of Precipitation, MM = Missing Value Source: Averaged Metar Reports

Daily Weather History Graph

Daily Weather History Graph

Search for Another Location

Airport:

Trip Planner

Search our weather history database for the weather conditions in past years. The results will help you decide how hot, cold, wet, or windy it might be!

Date:

Astronomy

May. 26, 2013 Rise Set
Actual Time 4:42 AM BST 9:39 PM BST
Civil Twilight 3:48 AM BST 10:34 PM BST
Nautical Twilight 2:06 AM BST 12:19 AM BST
Astronomical Twilight Sun does not rise Sun does not rise
Moon 11:07 PM BST (5/26) 6:00 AM BST (5/26)
Length of Visible Light 18h 45m
Length of Day
16h 56m
Full, 97% of the Moon is Illuminated
May 26
Full
May 31
Last Quarter
Jun 8
New
Jun 16
First Quarter
Jun 23
Full

Hourly Weather History & Observations

Time (BST) Temp. Windchill Dew Point Humidity Pressure Visibility Wind Dir Wind Speed Gust Speed Precip Events Conditions
12:20 AM 42.8 °F 39.3 °F 39.2 °F 87% 30.12 in - WSW 5.8 mph - N/A   Clear
12:50 AM 44.6 °F 43.1 °F 39.2 °F 81% 30.12 in 6.2 mi WSW 3.5 mph - N/A   Unknown
1:20 AM 42.8 °F 41.1 °F 39.2 °F 87% 30.12 in 6.2 mi Variable 3.5 mph - N/A   Unknown
1:50 AM 44.6 °F 42.2 °F 39.2 °F 81% 30.12 in 6.2 mi West 4.6 mph - N/A   Unknown
2:20 AM 42.8 °F 41.1 °F 39.2 °F 87% 30.12 in 6.2 mi Variable 3.5 mph - N/A   Unknown
2:50 AM 41.0 °F - 37.4 °F 87% 30.09 in 6.2 mi Variable 2.3 mph - N/A   Unknown
3:20 AM 44.6 °F 40.7 °F 39.2 °F 81% 30.09 in - West 6.9 mph - N/A   Clear
3:50 AM 42.8 °F 40.1 °F 37.4 °F 81% 30.09 in 6.2 mi West 4.6 mph - N/A   Unknown
4:20 AM 41.0 °F 37.1 °F 37.4 °F 87% 30.09 in - West 5.8 mph - N/A   Clear
4:50 AM 41.0 °F 37.1 °F 37.4 °F 87% 30.09 in - West 5.8 mph - N/A   Clear
5:20 AM 41.0 °F 37.1 °F 37.4 °F 87% 30.09 in 6.2 mi WSW 5.8 mph - N/A   Scattered Clouds
5:50 AM 42.8 °F 40.1 °F 37.4 °F 81% 30.09 in 6.2 mi West 4.6 mph - N/A   Partly Cloudy
6:20 AM 44.6 °F 41.4 °F 39.2 °F 81% 30.09 in 6.2 mi WSW 5.8 mph - N/A   Mostly Cloudy
6:50 AM 46.4 °F 43.5 °F 42.8 °F 87% 30.09 in 6.2 mi WSW 5.8 mph - N/A   Scattered Clouds
7:20 AM 48.2 °F - 41.0 °F 76% 30.09 in 6.2 mi SW 6.9 mph - N/A   Partly Cloudy
7:50 AM 51.8 °F - 42.8 °F 71% 30.06 in - WSW 8.1 mph - N/A   Clear
8:20 AM 53.6 °F - 46.4 °F 77% 30.06 in 6.2 mi WSW 5.8 mph - N/A   Partly Cloudy
8:50 AM 55.4 °F - 46.4 °F 72% 30.06 in 6.2 mi WSW 8.1 mph - N/A   Scattered Clouds
9:20 AM 55.4 °F - 46.4 °F 72% 30.06 in 6.2 mi West 10.4 mph - N/A   Mostly Cloudy
9:50 AM 55.4 °F - 46.4 °F 72% 30.06 in 6.2 mi West 8.1 mph - N/A   Mostly Cloudy
10:20 AM 55.4 °F - 46.4 °F 72% 30.06 in 6.2 mi West 9.2 mph - N/A   Overcast
10:50 AM 57.2 °F - 46.4 °F 67% 30.04 in 6.2 mi West 10.4 mph - N/A   Mostly Cloudy
11:20 AM 59.0 °F - 46.4 °F 63% 30.04 in 6.2 mi West 8.1 mph - N/A   Mostly Cloudy
11:50 AM 57.2 °F - 46.4 °F 67% 30.04 in 6.2 mi West 9.2 mph - N/A   Mostly Cloudy
12:20 PM 57.2 °F - 46.4 °F 67% 30.01 in 6.2 mi West 10.4 mph - N/A   Overcast
12:50 PM 59.0 °F - 48.2 °F 67% 30.01 in 6.2 mi West 9.2 mph - N/A   Mostly Cloudy
1:20 PM 59.0 °F - 46.4 °F 63% 30.01 in 6.2 mi West 8.1 mph - N/A   Mostly Cloudy
1:50 PM 59.0 °F - 46.4 °F 63% 30.01 in 6.2 mi WSW 9.2 mph - N/A   Mostly Cloudy
2:20 PM 59.0 °F - 46.4 °F 63% 29.98 in 6.2 mi WSW 9.2 mph - N/A   Mostly Cloudy
2:50 PM 59.0 °F - 48.2 °F 67% 29.98 in 6.2 mi WSW 9.2 mph - N/A   Mostly Cloudy
3:20 PM 59.0 °F - 48.2 °F 67% 29.98 in 6.2 mi WSW 9.2 mph - N/A   Mostly Cloudy
3:50 PM 59.0 °F - 48.2 °F 67% 29.95 in 6.2 mi SW 12.7 mph - N/A   Mostly Cloudy
4:20 PM 59.0 °F - 46.4 °F 63% 29.95 in 6.2 mi SW 13.8 mph - N/A   Mostly Cloudy
4:50 PM 59.0 °F - 46.4 °F 63% 29.95 in 6.2 mi SW 11.5 mph - N/A   Mostly Cloudy
5:20 PM 59.0 °F - 46.4 °F 63% 29.92 in 6.2 mi SW 12.7 mph - N/A   Scattered Clouds
5:50 PM 59.0 °F - 46.4 °F 63% 29.92 in 6.2 mi SW 12.7 mph - N/A   Partly Cloudy
6:20 PM 60.8 °F - 48.2 °F 63% 29.89 in 6.2 mi SW 10.4 mph - N/A   Partly Cloudy
6:50 PM 59.0 °F - 46.4 °F 63% 29.89 in 6.2 mi WSW 9.2 mph - N/A   Partly Cloudy
7:20 PM 59.0 °F - 46.4 °F 63% 29.89 in 6.2 mi SW 10.4 mph - N/A   Scattered Clouds
7:50 PM 59.0 °F - 46.4 °F 63% 29.86 in 6.2 mi SW 8.1 mph - N/A   Scattered Clouds
8:20 PM 57.2 °F - 44.6 °F 63% 29.86 in 6.2 mi SSW 16.1 mph - N/A   Scattered Clouds
8:50 PM 55.4 °F - 42.8 °F 63% 29.83 in 6.2 mi SSW 11.5 mph - N/A   Partly Cloudy
9:20 PM 53.6 °F - 41.0 °F 62% 29.83 in - South 9.2 mph - N/A   Clear
9:50 PM 53.6 °F - 41.0 °F 62% 29.83 in - SSW 13.8 mph - N/A   Clear
10:20 PM 53.6 °F - 42.8 °F 67% 29.80 in - South 13.8 mph - N/A   Clear
10:50 PM 51.8 °F - 39.2 °F 62% 29.80 in - SSW 15.0 mph - N/A   Clear
11:20 PM 51.8 °F - 37.4 °F 58% 29.77 in - SSW 16.1 mph - N/A   Clear
11:50 PM 50.0 °F - 39.2 °F 66% 29.77 in - SSW 19.6 mph - N/A   Clear